Temp
8 7 7 7 7 7 6 5 5 4 4 4 3 4 4 5 6 5 6 4 6 6 6 4 3 3 2 2 4 4 5 4 4 5 6 6 5 8 9 7 8 7 8 12
8 8 7 7 7 7 7 5 4 4 4 4 4 5 5 5 5 5 5 4 5 5 6 5 5 4 1 3 5 5 5 5 5 5 6 7 5 8 9 9 8 7 10 12
8 7 7 7 7 7 7 5 4 3 3 0 3 3 4 4 4 5 4 4 6 5 6 7 5 4 2 3 5 5 6 6 6 7 7 7 6 7 8 9 8 9 12 12
8 7 7 7 7 7 6 4 1 1 3 3 2 2 3 3 4 4 4 5 4 3 5 6 5 4 2 2 2 4 5 5 6 6 6 7 7 8 8 6 9 10 11 11
8 8 7 7 7 7 6 3 1 -0 1 -0 2 2 3 2 2 2 4 4 4 4 4 4 4 3 4 3 2 1 2 5 5 6 8 8 7 8 8 9 9 9 9 11
7 7 7 6 6 6 5 4 3 2 -0 2 3 2 2 2 1 3 3 3 3 4 3 2 3 3 2 2 2 3 2 5 7 6 7 7 7 8 8 9 10 10 10 12
7 7 7 6 6 6 6 4 3 2 4 3 3 1 0 1 1 1 2 2 3 4 3 2 2 1 2 2 3 2 3 4 7 8 7 8 8 8 9 9 9 9 10 10
7 7 6 6 5 5 5 5 3 2 3 2 1 0 0 0 -0 0 1 2 1 1 1 7 8 8 7 6 6 4 4 6 8 8 8 8 8 7 7 7 8 9 9 10
7 7 6 5 5 5 4 4 3 2 3 2 -1 0 -1 0 1 2 1 1 2 1 4 6 7 6 6 7 7 7 6 7 8 7 8 8 8 8 7 8 8 8 9 10
7 7 5 5 5 4 4 3 2 1 1 -1 -1 1 0 -1 -0 1 0 -0 1 2 5 6 5 6 5 7 7 7 7 8 8 8 8 8 8 7 7 7 9 7 7 9
7 6 5 5 4 3 3 3 2 1 0 -1 -1 -1 -1 -1 -1 1 0 1 1 2 4 4 4 5 5 5 6 6 6 7 8 7 8 7 7 8 8 8 7 7 7 7
7 6 5 4 3 3 2 2 2 1 1 1 0 -0 -0 -1 -1 -1 -1 -0 -1 -1 2 3 2 5 5 4 7 6 7 6 7 7 8 6 5 6 5 5 7 6 7 7
6 5 4 4 3 2 2 2 2 1 1 -0 -0 -0 -0 -1 -1 -1 -1 -1 -1 -2 -2 -0 1 3 4 6 7 5 6 4 6 6 6 6 5 5 5 6 6 6 7 7
6 5 4 4 3 2 1 2 2 1 1 2 1 0 -0 -0 -1 -1 -1 -1 -2 -2 -2 0 1 2 3 5 5 4 6 5 6 7 7 6 5 5 5 5 6 6 6 6
5 4 4 3 3 1 0 1 1 1 1 2 0 0 0 -0 -1 -1 -1 -1 -2 -2 -0 0 2 3 3 4 3 4 5 7 7 8 6 6 6 5 5 5 5 5 5 5
4 4 3 2 2 0 0 1 1 2 2 2 1 0 0 -0 -1 -1 -1 -1 -1 -2 -1 0 0 1 3 4 5 6 4 4 4 6 4 4 4 4 5 5 5 5 5 5
3 3 3 2 2 -1 0 1 1 1 1 1 0 1 0 -0 -1 -1 -1 -2 -2 -2 -2 -2 1 2 3 3 5 6 4 4 4 4 4 4 4 4 4 4 4 4 4 4
3 3 1 -1 -0 -1 -0 0 -0 0 1 0 -1 1 0 -0 -1 -0 -1 -2 -1 -1 -1 0 2 3 3 4 5 4 3 3 3 3 4 4 4 4 3 3 3 3 3 3
3 3 -1 -1 -2 -1 -1 -0 -1 -0 0 -2 -1 1 1 -1 -2 -2 -2 -1 -0 -1 0 2 2 3 3 3 2 2 1 1 2 3 3 3 3 3 3 3 3 2 2 2
2 0 -1 -1 -2 -1 -1 -1 -1 -1 -1 -1 -1 -4 -0 -2 -2 -1 -1 -1 0 1 2 1 2 3 0 -1 -1 -0 1 1 1 2 2 2 2 2 1 2 2 1 1 1
1 0 -1 -2 -2 -1 -2 -2 -1 -2 -1 -2 -2 -2 -1 -3 -1 -1 -2 -0 0 2 3 2 3 3 -0 -1 -1 -1 -1 -0 0 1 1 1 1 1 0 0 0 0 0 -0
3 2 -1 -2 -2 -2 -2 -3 -2 -2 -0 -3 -1 -2 -3 -3 -2 -2 -1 -1 0 1 1 2 3 -0 -2 -2 -2 -1 -1 -1 -1 -0 -0 0 -0 -0 -1 -1 -1 -1 -1 -1
2 2 -1 -1 -4 -1 -0 -2 -4 -4 -4 -3 -3 -2 -3 -3 -3 -1 -1 0 1 1 2 3 0 -2 -2 -3 -2 -2 -2 -2 -1 -2 -2 -2 -2 -2 -2 -2 -2 -2 -2 -2
3 2 -2 -0 -3 -2 -1 -1 -2 -3 -2 -2 -3 -4 -3 -3 -2 -1 -1 1 0 2 2 1 0 -1 -2 -2 -2 -2 -2 -2 -2 -2 -3 -3 -3 -2 -2 -2 -2 -2 -2 -2
2 3 1 -4 -3 -4 -3 -3 -3 -3 -3 -3 -4 -4 -4 -4 -3 -2 -1 -0 2 1 1 0 -1 -2 -2 -2 -2 -2 -2 -2 -2 -3 -2 -3 -3 -3 -3 -3 -3 -3 -3 -3
1 -2 -4 -5 -3 -4 -4 -4 -4 -3 -3 -4 -4 -3 -4 -3 -4 -3 -2 0 1 1 -1 -0 -1 -2 -2 -2 -2 -2 -3 -3 -3 -3 -3 -3 -3 -3 -3 -3 -4 -3 -3 -3
-2 -5 -4 -3 -3 -4 -4 -4 -4 -4 -3 -4 -4 -5 -3 -4 -4 -3 -2 -0 0 -1 -1 -1 -2 -2 -2 -2 -2 -2 -3 -3 -3 -3 -4 -5 -4 -5 -4 -4 -4 -3 -3 -4
Height
1496 1493 1490 1487 1485 1482 1480 1481 1483 1482 1481 1482 1481 1478 1478 1477 1474 1473 1473 1473 1468 1463 1458 1460 1462 1461 1464 1468 1469 1472 1472 1472 1471 1468 1468 1471 1469 1460 1460 1460 1460 1461 1458 1447
1493 1491 1488 1485 1483 1480 1479 1480 1483 1482 1480 1481 1479 1477 1477 1478 1477 1474 1472 1472 1471 1468 1462 1458 1457 1461 1466 1468 1468 1468 1470 1470 1471 1473 1470 1467 1468 1461 1459 1459 1462 1462 1447 1448
1491 1489 1486 1484 1481 1479 1478 1480 1482 1483 1482 1484 1482 1481 1480 1478 1477 1475 1476 1473 1469 1470 1461 1458 1459 1463 1471 1470 1470 1470 1469 1466 1460 1458 1457 1458 1464 1461 1462 1460 1460 1454 1442 1445
1488 1487 1484 1482 1480 1478 1478 1479 1484 1483 1482 1482 1484 1483 1483 1480 1479 1478 1475 1470 1474 1473 1466 1461 1461 1465 1472 1473 1472 1472 1470 1466 1463 1461 1460 1460 1458 1458 1457 1462 1455 1451 1449 1448
1485 1485 1482 1481 1478 1477 1476 1478 1480 1483 1483 1484 1484 1484 1483 1484 1481 1480 1474 1472 1472 1471 1468 1470 1467 1469 1466 1468 1473 1474 1475 1464 1462 1455 1451 1451 1455 1454 1453 1454 1455 1456 1455 1450
1482 1482 1481 1479 1477 1475 1475 1475 1477 1479 1483 1484 1483 1484 1485 1484 1484 1478 1478 1477 1476 1468 1470 1469 1467 1467 1467 1467 1468 1471 1473 1466 1455 1453 1453 1452 1456 1451 1452 1453 1449 1452 1453 1448
1479 1480 1479 1478 1476 1475 1474 1473 1474 1477 1479 1482 1482 1486 1486 1484 1485 1483 1478 1478 1474 1471 1467 1462 1461 1462 1464 1465 1465 1467 1468 1466 1455 1447 1450 1443 1448 1450 1447 1449 1449 1450 1451 1452
1476 1478 1477 1476 1475 1475 1474 1472 1473 1475 1479 1482 1484 1485 1484 1482 1481 1481 1479 1476 1474 1468 1464 1456 1452 1454 1457 1459 1460 1463 1464 1458 1448 1444 1442 1447 1447 1449 1450 1451 1449 1448 1448 1451
1473 1475 1474 1474 1474 1474 1473 1472 1471 1473 1478 1483 1483 1483 1484 1482 1481 1478 1476 1473 1471 1470 1467 1459 1453 1456 1458 1453 1456 1459 1459 1458 1453 1448 1445 1443 1448 1450 1451 1451 1446 1446 1447 1449
1470 1472 1472 1472 1473 1472 1472 1471 1471 1473 1478 1482 1482 1482 1484 1484 1483 1481 1480 1476 1474 1470 1466 1462 1463 1459 1464 1456 1457 1457 1454 1452 1448 1445 1444 1447 1450 1452 1452 1451 1449 1447 1446 1446
1466 1468 1469 1471 1471 1471 1471 1471 1471 1472 1477 1482 1482 1483 1484 1485 1485 1482 1482 1479 1477 1475 1470 1472 1471 1466 1467 1463 1462 1462 1459 1455 1449 1450 1446 1448 1451 1450 1448 1450 1448 1446 1445 1445
1462 1465 1467 1469 1469 1470 1470 1470 1471 1472 1476 1482 1483 1483 1483 1484 1485 1486 1485 1485 1484 1484 1481 1479 1480 1470 1469 1470 1453 1462 1457 1460 1456 1455 1450 1455 1453 1452 1451 1450 1449 1448 1448 1448
1459 1462 1465 1466 1468 1469 1469 1469 1471 1473 1477 1483 1483 1483 1484 1483 1485 1485 1487 1485 1486 1486 1486 1485 1481 1478 1474 1464 1460 1464 1459 1462 1458 1456 1455 1454 1454 1453 1451 1451 1450 1449 1450 1450
1456 1460 1463 1465 1466 1468 1469 1469 1470 1472 1475 1479 1486 1484 1484 1484 1484 1484 1484 1484 1484 1485 1485 1484 1483 1478 1476 1470 1467 1467 1461 1462 1456 1453 1454 1454 1454 1454 1453 1452 1452 1452 1452 1452
1453 1458 1461 1462 1466 1466 1469 1469 1469 1470 1474 1476 1483 1484 1485 1484 1483 1483 1482 1483 1483 1484 1484 1483 1479 1474 1474 1472 1472 1464 1459 1456 1453 1449 1454 1454 1454 1454 1454 1454 1454 1454 1454 1454
1450 1456 1459 1461 1464 1466 1469 1469 1470 1469 1470 1474 1479 1483 1483 1483 1483 1482 1482 1483 1483 1485 1485 1481 1479 1476 1475 1470 1463 1459 1459 1458 1458 1456 1455 1454 1454 1454 1454 1454 1454 1454 1454 1454
1449 1454 1458 1460 1464 1466 1468 1469 1469 1468 1470 1472 1480 1482 1483 1482 1482 1482 1482 1482 1484 1485 1484 1482 1478 1476 1473 1470 1464 1458 1459 1458 1457 1456 1456 1456 1455 1454 1454 1455 1455 1455 1455 1454
1447 1453 1457 1460 1464 1465 1467 1467 1468 1469 1470 1472 1478 1482 1482 1483 1482 1483 1482 1482 1483 1483 1482 1480 1475 1472 1470 1465 1462 1462 1460 1458 1457 1456 1456 1456 1455 1455 1454 1454 1454 1455 1455 1454
1446 1452 1457 1461 1465 1465 1466 1468 1470 1470 1474 1473 1477 1480 1481 1482 1482 1482 1482 1481 1481 1481 1479 1475 1475 1471 1470 1466 1465 1463 1462 1460 1458 1457 1456 1456 1456 1455 1454 1454 1454 1454 1453 1453
1445 1453 1457 1461 1463 1465 1468 1470 1471 1472 1472 1474 1478 1481 1481 1483 1482 1481 1482 1479 1477 1474 1473 1471 1469 1465 1467 1466 1463 1463 1461 1459 1458 1457 1457 1456 1455 1455 1454 1453 1453 1452 1451 1451
1442 1449 1454 1460 1464 1467 1469 1472 1473 1474 1476 1476 1478 1479 1480 1481 1482 1481 1482 1479 1476 1471 1468 1469 1463 1462 1468 1465 1463 1460 1459 1458 1457 1456 1455 1455 1454 1453 1452 1451 1450 1450 1449 1448
1439 1445 1452 1461 1465 1467 1471 1474 1476 1475 1474 1476 1476 1478 1479 1481 1482 1481 1481 1479 1477 1470 1470 1466 1459 1469 1469 1465 1463 1461 1458 1457 1455 1454 1453 1452 1452 1451 1450 1449 1448 1448 1447 1446
1438 1442 1450 1455 1464 1467 1466 1470 1475 1476 1473 1473 1474 1477 1479 1481 1482 1481 1480 1476 1471 1470 1464 1459 1468 1469 1466 1464 1460 1458 1457 1455 1454 1452 1450 1449 1449 1448 1448 1448 1447 1446 1445 1444
1432 1437 1450 1452 1461 1458 1456 1457 1460 1465 1467 1470 1472 1476 1479 1481 1481 1479 1479 1473 1472 1462 1461 1465 1467 1466 1462 1461 1458 1456 1454 1453 1452 1450 1449 1448 1448 1448 1447 1447 1446 1445 1444 1442
1430 1434 1442 1453 1452 1454 1455 1457 1461 1466 1469 1470 1473 1477 1479 1481 1481 1479 1478 1474 1462 1463 1462 1463 1462 1462 1460 1456 1454 1452 1451 1449 1449 1448 1447 1446 1446 1446 1446 1445 1444 1444 1442 1441
1430 1436 1445 1450 1451 1455 1457 1459 1463 1466 1468 1470 1473 1476 1480 1479 1480 1478 1473 1467 1459 1458 1461 1461 1459 1458 1455 1453 1451 1447 1446 1446 1445 1445 1445 1444 1444 1444 1444 1444 1443 1442 1440 1440
1432 1438 1440 1443 1445 1449 1454 1458 1462 1466 1468 1469 1472 1478 1477 1480 1479 1475 1467 1460 1457 1458 1458 1459 1457 1454 1451 1449 1446 1444 1441 1441 1441 1441 1441 1441 1440 1440 1442 1441 1440 1440 1439 1438
Wind_Speed
10 13 14 15 15 15 6 2 0 10 4 0 1 2 3 5 6 5 3 2 6 5 6 2 3 2 2 12 13 8 4 2 4 4 1 2 7 4 5 3 3 1 4 4
8 11 11 12 12 12 5 3 1 4 4 1 1 1 3 2 5 5 5 4 5 4 4 3 5 5 2 11 11 11 7 3 4 2 4 4 5 5 5 3 2 0 1 5
5 7 8 9 10 9 3 3 1 3 6 3 2 3 4 5 5 2 4 3 5 8 3 4 6 3 3 2 7 5 9 2 4 1 1 5 6 9 8 3 2 0 7 7
3 5 5 6 6 6 3 3 2 2 1 3 2 1 4 5 5 4 5 3 8 5 4 7 7 5 3 1 3 2 5 3 4 8 10 5 5 12 13 9 10 3 5 2
5 5 2 2 5 2 4 3 4 3 2 1 2 3 2 5 5 3 1 4 10 6 3 4 5 7 4 4 4 3 2 2 2 3 6 10 9 11 16 16 11 9 1 2
8 7 3 2 5 3 3 4 6 5 2 2 2 1 2 3 6 4 5 7 6 7 5 16 20 15 12 2 5 8 5 3 2 2 2 8 5 14 18 15 11 10 8 3
11 9 7 5 6 6 7 6 7 4 3 2 1 1 2 5 6 5 9 7 3 5 20 16 1 4 5 6 8 8 6 4 3 2 2 2 3 2 10 16 14 14 7 2
14 12 9 7 7 7 8 7 4 4 3 3 2 2 3 7 5 3 5 3 8 16 10 3 2 2 3 3 5 12 8 4 2 2 2 2 1 2 2 11 12 14 16 12
17 14 11 8 8 8 8 8 6 5 6 2 2 1 2 3 5 2 3 6 5 9 2 2 2 2 3 2 2 5 4 9 4 1 1 1 2 3 2 4 5 2 15 13
19 16 13 10 8 8 8 7 6 7 6 3 2 2 2 2 2 3 4 9 10 11 4 3 4 2 1 2 4 3 1 1 2 1 0 2 2 4 3 4 3 7 5 14
21 18 15 11 9 8 8 9 7 9 6 5 3 2 2 1 3 3 7 2 5 6 3 3 2 2 3 2 1 4 3 2 1 1 1 1 4 2 3 3 5 3 3 8
23 19 16 12 10 9 9 10 13 15 8 7 7 6 3 1 1 3 6 2 1 3 1 2 3 1 2 3 1 2 1 3 3 2 3 3 3 3 4 2 2 4 7 8
24 20 17 13 10 10 11 11 15 19 13 10 5 4 3 1 2 3 1 1 2 2 2 1 0 3 2 2 2 4 2 1 3 3 1 1 1 2 3 5 7 9 8 8
24 21 17 13 9 11 13 11 12 10 7 4 2 5 6 5 2 2 2 4 1 1 2 1 1 2 1 2 3 2 3 3 2 3 2 2 2 3 5 8 8 8 7 7
24 21 16 13 8 12 15 11 9 7 5 4 6 5 2 3 4 3 3 5 4 1 2 3 3 3 2 2 2 4 4 1 2 2 4 2 1 3 4 6 7 7 6 8
24 20 15 12 10 17 14 4 4 6 11 5 3 4 4 4 2 3 1 4 4 2 2 3 4 4 3 2 2 3 3 4 5 3 5 3 2 4 4 4 4 4 4 5
25 20 15 13 13 13 3 4 6 6 9 4 4 3 1 6 1 2 2 5 2 3 2 3 3 4 2 1 4 3 2 5 6 5 2 1 5 2 4 4 3 4 4 3
26 20 16 16 13 12 8 8 7 7 5 4 3 2 2 7 2 1 1 2 2 4 2 4 4 3 4 3 4 10 7 6 4 3 4 4 4 5 5 4 4 4 3 2
26 20 23 18 5 4 8 11 9 8 4 4 3 1 0 5 3 2 2 3 2 3 3 3 3 1 3 4 9 9 8 5 6 4 3 2 3 4 4 5 5 5 4 4
27 29 6 6 8 17 12 3 2 2 3 3 3 2 1 2 3 1 3 3 1 2 4 3 3 3 5 13 10 10 8 6 5 4 5 5 5 6 6 5 5 5 6 7
29 9 5 19 19 5 3 2 2 1 2 1 3 3 0 1 1 1 1 2 2 2 1 2 2 2 7 17 12 8 6 5 4 4 6 6 7 8 8 7 7 7 8 9
15 13 22 13 5 4 3 2 1 1 3 4 3 3 2 1 1 2 2 2 1 3 0 2 2 3 15 17 16 11 9 7 6 6 7 8 8 8 8 8 7 7 6 5
26 6 6 6 2 2 5 6 2 2 6 8 5 2 2 2 1 2 1 3 3 5 2 1 3 8 13 17 16 14 11 10 11 12 10 9 8 7 5 4 3 4 4 4
5 7 4 2 3 4 3 3 4 5 9 13 8 4 2 1 1 0 2 2 2 3 1 2 2 8 13 17 17 15 14 13 11 8 6 5 5 3 3 2 2 3 3 3
5 5 4 3 4 4 9 14 12 9 13 10 7 5 2 1 1 1 2 2 3 1 2 2 4 12 14 17 19 16 15 13 13 9 7 5 5 4 3 3 3 3 3 3
4 5 6 6 6 4 6 10 9 14 14 10 6 3 2 2 2 2 5 3 4 3 2 6 10 14 16 18 18 15 13 11 14 12 7 5 4 4 5 4 3 3 3 3
4 4 6 8 6 10 10 12 12 16 9 3 4 4 4 2 1 3 3 3 2 3 6 10 14 18 19 19 17 14 11 9 13 15 16 15 13 7 6 5 4 3 3 3
Wind_Direction
324 327 330 331 346 353 27 115 145 353 12 51 12 50 315 319 320 346 342 275 322 335 337 292 263 239 239 179 163 175 177 112 157 217 84 187 278 198 188 304 149 22 318 77
315 320 323 331 348 355 26 112 126 1 41 71 33 11 360 310 337 353 2 338 355 297 339 347 340 63 20 170 169 164 178 178 127 135 275 183 227 184 224 110 319 350 300 113
304 311 314 334 349 358 48 124 139 30 60 67 339 16 1 343 347 254 350 318 8 344 309 15 357 72 69 174 185 197 180 226 247 180 53 153 193 205 212 206 268 113 112 113
267 290 310 343 3 7 103 103 108 127 77 80 59 44 359 344 359 347 338 157 12 326 304 352 12 79 97 4 19 174 203 257 248 252 260 278 237 199 192 201 222 250 134 71
232 238 275 358 29 69 67 141 152 128 119 99 228 25 25 350 333 278 12 360 337 329 326 8 321 4 173 196 172 147 177 268 253 269 255 239 215 218 210 223 224 251 227 274
210 208 182 102 60 97 125 137 143 147 139 138 199 53 8 335 333 226 273 329 321 312 6 313 294 278 257 271 181 182 180 244 254 260 162 149 193 207 208 216 231 219 216 196
202 194 173 139 104 101 111 127 147 150 131 169 92 108 283 281 321 281 313 324 298 340 316 308 75 132 206 223 209 199 191 213 228 319 195 161 55 331 218 218 230 234 235 178
195 189 163 141 117 105 93 91 128 135 114 112 156 240 289 310 314 268 262 300 302 315 313 313 152 139 179 158 199 200 217 248 239 264 227 112 127 69 141 192 239 241 245 242
191 184 156 145 125 115 95 78 80 121 137 125 131 143 7 349 345 291 262 315 356 351 299 321 51 66 351 345 135 199 198 242 268 156 293 12 47 40 269 189 256 355 231 231
189 177 157 149 130 119 101 84 77 113 104 150 103 72 44 344 340 296 324 337 354 7 358 37 26 47 318 352 339 337 303 305 263 215 218 115 24 339 125 215 67 323 247 211
187 172 159 154 137 123 108 90 106 122 107 132 109 97 94 20 11 357 339 273 22 6 58 9 13 345 17 284 327 329 319 326 14 292 243 166 10 238 265 359 343 337 88 155
183 169 164 159 143 132 118 98 115 116 105 119 94 76 83 114 115 343 1 43 10 46 20 51 302 319 326 328 31 149 270 324 324 285 34 13 331 341 335 330 39 66 101 128
179 167 164 162 147 145 129 112 131 123 112 104 91 59 53 128 306 336 296 53 56 56 45 307 286 282 296 327 10 299 212 171 268 299 62 316 17 49 82 98 101 94 100 119
175 165 164 159 149 154 132 115 136 157 134 117 122 98 86 78 51 351 259 236 272 301 285 245 268 278 257 293 326 266 294 314 303 271 236 236 160 121 118 106 105 107 113 116
171 165 163 147 159 154 145 119 105 144 151 121 145 140 71 356 335 318 260 236 237 268 243 227 232 258 271 255 284 252 201 276 274 17 347 309 68 156 138 136 117 125 122 116
166 166 159 140 162 153 146 140 93 118 138 125 138 133 132 12 3 358 270 196 211 220 255 272 279 276 274 264 269 282 242 282 271 314 333 286 173 155 148 140 129 122 122 117
166 165 155 142 150 159 160 135 137 103 133 111 111 126 92 10 39 6 35 168 200 220 254 253 270 287 257 266 264 341 277 316 307 287 236 199 185 216 185 184 169 155 147 138
166 161 151 146 145 120 113 118 103 108 106 95 108 102 125 14 359 31 329 189 233 225 260 261 249 242 230 256 319 332 313 310 306 288 258 257 202 181 181 191 195 201 209 233
162 156 144 134 156 125 127 118 98 88 98 112 84 95 90 3 16 314 276 202 245 196 240 247 212 260 248 343 340 352 346 335 320 293 277 227 208 203 216 230 233 236 250 269
155 142 137 130 135 128 119 84 72 51 47 64 92 117 100 14 352 344 311 242 233 236 222 223 210 241 67 359 330 304 307 312 304 290 288 273 254 252 246 232 237 250 266 274
147 154 109 135 130 115 85 76 58 46 63 93 121 154 58 95 356 332 267 329 295 259 145 247 228 158 356 347 335 331 321 310 300 276 267 267 261 247 247 252 259 268 274 278
162 145 119 130 121 91 89 38 87 174 169 172 159 157 186 122 191 251 212 274 260 250 333 236 224 42 348 347 341 317 312 302 291 282 274 274 268 256 253 256 262 268 272 277
137 117 114 148 99 125 199 176 216 222 185 182 167 129 124 148 193 271 293 249 237 330 226 235 59 332 343 343 341 331 301 296 298 292 281 267 264 252 232 217 241 261 274 286
133 147 102 145 175 237 184 172 139 147 158 146 127 108 116 117 152 218 250 271 302 253 281 47 268 327 344 349 343 325 310 289 287 271 239 227 230 216 204 219 261 277 283 294
120 131 138 174 138 110 128 122 119 124 149 132 108 90 90 37 214 206 284 246 244 205 193 229 288 330 339 343 342 332 313 282 270 253 246 233 228 229 241 268 273 270 284 297
95 90 106 127 108 121 133 135 132 144 145 115 93 102 133 209 216 206 219 233 226 178 205 271 306 319 331 333 332 332 313 280 257 238 230 229 234 248 260 259 258 273 279 292
79 84 136 152 133 155 157 163 165 159 154 117 122 146 193 92 220 242 219 224 189 202 274 304 313 313 319 320 321 326 311 280 257 245 220 213 217 208 269 264 267 274 275 279